Regional Weather Roundup
Issued by NWS

Home | Current Version | Previous Version | Graphics & Text | Print | Product List | Glossary On
Versions: 1 2 3 4 5 6 7 8 9 10 11 12 13 14 15 16 17 18 19 20 21 22 23 24 25 26 27 28 29 30 31 32 33 34 35 36 37 38 39 40 41 42 43 44 45 46 47 48 49 50
000
ASUS45 KABQ 230201
RWRNM
WEATHER ROUNDUP FOR NEW MEXICO
NATIONAL WEATHER SERVICE ALBUQUERQUE NM
800 PM MDT MON SEP 22 2014

NOTE: "FAIR" MEANS FEW OR NO CLOUDS BELOW 12,000 FEET AGL WITH NO
       SIGNIFICANT WEATHER OR OBSTRUCTIONS TO VISION.

      THIS PRODUCT IS RELEASED AS TWO VERSIONS.  ONE VERSION NEAR
      THE TOP OF THE HOUR CONTAINING PRELIMINARY DATA FROM ALBUQUERQUE
      AND OTHER STATIONS.  A FINAL VERSION WITH ADDITIONAL DATA IS
      ISSUED ABOUT 10 MINUTES AFTER THE HOUR.

NMZ501-503-504-510>518-230300-
NORTHWEST PLATEAU/NORTHCENTRAL MOUNTAINS

CITY           SKY/WX    TMP DP  RH WIND       PRES   REMARKS
FARMINGTON     CLEAR     72  46  39 N3        30.16R
LOS ALAMOS     CLOUDY    63  56  79 S10       30.34R
SANTA FE       LGT RAIN  66  57  72 SE17G25   30.28R
TAOS           PTCLDY    59  52  77 S8        30.32R
ANGEL FIRE     CLOUDY    55  51  86 S9        30.40R

$$
NMZ402-403-502-505>509-230300-
WESTCENTRAL MOUNTAINS/SOUTHWEST MOUNTAINS

CITY           SKY/WX    TMP DP  RH WIND       PRES   REMARKS
GALLUP         MOCLDY    68  54  60 SW3       30.25R
SILVER CITY    MOCLDY    66  63  88 E3        30.26R

$$
NMZ407-409-411-412-230300-
SOUTHERN DESERTS

CITY           SKY/WX    TMP DP  RH WIND       PRES   REMARKS
LORDSBURG      FAIR      72  63  73 MISG      30.14R
DEMING         MOCLDY    69  63  81 E10       30.17R
LAS CRUCES     CLOUDY    66  64  94 SE7       30.20R
T OR C         MOCLDY    69  63  81 SE10      30.20R

$$
NMZ519>523-230300-
CENTRAL VALLEYS/CENTRAL HIGHLANDS

CITY           SKY/WX    TMP DP  RH WIND       PRES   REMARKS
ALBUQUERQUE    CLOUDY    69  58  67 SW8       30.24R
DOUBLE EAGLE   CLOUDY    64  61  88 S7        30.27R
CLINES CORNERS CLOUDY    59  57  93 S12       30.33R
BELEN          TSTM      67  60  78 E6        30.22R
SOCORRO        CLOUDY    66  62  84 SE8       30.20R

$$
NMZ524>526-539-540-230300-
SOUTHCENTRAL MOUNTAINS

CITY           SKY/WX    TMP DP  RH WIND       PRES   REMARKS
RUIDOSO        NOT AVBL

$$
NMZ527>531-230300-
NORTHEAST HIGHLANDS/NORTHEAST PLAINS

CITY           SKY/WX    TMP DP  RH WIND       PRES   REMARKS
LAS VEGAS      LGT RAIN  59  58  96 S17       30.34R
RATON          CLOUDY    60  58  92 S16       30.27R
CLAYTON        CLOUDY    64  60  87 S17       30.21F

$$
NMZ532>537-230300-
EASTCENTRAL PLAINS

CITY           SKY/WX    TMP DP  RH WIND       PRES   REMARKS
TUCUMCARI      MOCLDY    65  60  84 S6        30.23R
CANNON AFB     HVY RAIN  64  64 100 S7        30.27R
CLOVIS AIRPORT   N/A     66  63  88 SE6       30.29R

$$
NMZ028-029-538-230300-
SOUTHEAST PLAINS

CITY           SKY/WX    TMP DP  RH WIND       PRES   REMARKS
ROSWELL        CLOUDY    68  65  90 SE5       30.21R
CARLSBAD       CLOUDY    69  32  25 SW3       30.18S
HOBBS          CLOUDY    68  66  94 CALM      30.24R


$$


USA.gov is the U.S. government's official web portal to all federal, state and local government web resources and services.